sat.trackr.live / text

‹ back to catalog

STARLINK-1363

NORAD 45568 · 2020-025AP

PAYLOAD ACTIVE UNKNOWN

§ Identity

Operator
Country
US
Launch date
2020-04-22
Launch site
AFETR
Launch vehicle
Mass (kg)
RCS (m²)

Purposes: comms

External: N2YO · Heavens-Above · Gunter

§ Orbital elements

Epoch: 2026-05-25T00:32:33.861696Z

Period
89.41 min
Inclination
53.0285°
Eccentricity
0.0006769
Mean motion
16.10527140 rev/d
Perigee alt
240.9 km
Apogee alt
249.9 km
Semi-major
6,623.5 km
B*
6.9156e-4
RAAN
9.0940°
Arg perigee
253.9508°
Mean anomaly
106.0780°
Rev number
33,819

§ Raw data

STARLINK-13631 45568U 20025AP  26145.02261414  .00692088  26960-3  69156-3 0  99942 45568  53.0285   9.0940 0006769 253.9508 106.0780 16.10527140338198

JSON: /api/v1/satellites/45568 · /tle

For live sub-satellite position, see the globe view (requires WebGL).

§ Visibility from observer

Set your observer location to see the next 7 days of passes ≥ 10°. The values pass through the URL so the page stays shareable.

No JS? Fill the form by hand. The geolocation button needs JavaScript.